User: anonymous   Login
Location: Darlington Observatory
(36.4817°N, 105.8156°W)
Time: 00:20:38
(UTC-06:00)
Language:

NOSS 3-3 (A) - Orbit

View from above orbital plane
View from above orbital plane
View from above satellite
View from above satellite

Ground track
Ground track

The orbit data is extracted from the following two-line orbital elements,

1 28537U 05004A   15112.83868282 0.00000000  00000-0  00000-0 0    02
2 28537  63.4304  31.9093 0203001 358.9199   1.0801 13.40679761    06
Epoch (UTC): 22 April 2015 20:07:42
Eccentricity: 0.0203001
inclination: 63.4304°
perigee height: 955 km
apogee height: 1258 km
right ascension of ascending node: 31.9093°
argument of perigee: 358.9199°
revolutions per day: 13.40679761
mean anomaly at epoch: 1.0801°
orbit number at epoch: 0

The dashed part of the orbit path shows where the satellite is in the earth's shadow,  

DLR